Location: Gleizolles
(44.4833°N, 6.7667°E)
Time: 22:23:33
(UTC+00:00)

Tiros 1 despin weight - Pass Details

Date: 28 June 2024
Orbit: 576 x 620 km, 48.2° (Epoch: 19 July)

Event Time Altitude Azimuth Distance (km) Brightness Sun altitude
Rises 15:39:55 0° 289° (WNW) 2,896 ? 36.5°
Reaches altitude 10° 15:42:30 10° 277° (W) 1,985 ? 36.1°
Maximum altitude 15:46:21 27° 220° (SW) 1,184 ? 35.4°
Drops below altitude 10° 15:50:10 10° 162° (SSE) 1,962 ? 34.7°
Sets 15:52:42 0° 150° (SSE) 2,856 ? 34.3°
